Regional Weather Roundup
Issued by NWS

Home | Current Version | Previous Version | Text Only | Print | Product List | Glossary On
Versions: 1 2 3 4 5 6 7 8 9 10 11 12 13 14 15 16 17 18 19 20 21 22 23 24 25 26 27 28
000
ASUS45 KBOU 301007
RWRCO

WEATHER ROUNDUP FOR COLORADO
NATIONAL WEATHER SERVICE DENVER/BOULDER CO
400 AM MDT THU OCT 30 2014

NOTE: "FAIR" INDICATES FEW OR NO CLOUDS BELOW 12000 FEET WITH NO
SIGNIFICANT WEATHER AND/OR OBSTRUCTIONS TO VISIBILITY.

COZ001>005-013-030-031-301100-
...NORTHWEST COLORADO...

CITY           SKY/WX    TMP DP  RH WIND       PRES   REMARKS
CRAIG          PTCLDY    29  24  82 CALM      30.38R
HAYDEN         MOCLDY    36  21  55 E5        30.37R
MEEKER         CLEAR     29  23  78 NE3       30.38S
MOUNT WERNER   NOT AVBL
STEAMBOAT SPGS CLOUDY    33  25  71 CALM      30.38S
WALDEN         PTCLDY    32  23  69 SE7       30.38S WCI  26
$$

COZ006>008-011-301100-
...WEST CENTRAL VALLEYS...

CITY           SKY/WX    TMP DP  RH WIND       PRES   REMARKS
GRAND JUNCTION CLEAR     37  20  50 CALM      30.32R
MONTROSE       CLEAR     34  20  56 S9        30.37S WCI  27
EAGLE          CLEAR     28  21  74 CALM      30.42S
RIFLE          CLEAR     30  20  66 SE3       30.37S
DELTA          CLEAR     35  20  53 NE5       30.36R WCI  31
NUCLA          CLEAR     37  18  44 E8        30.38S
$$

COZ017>023-064>068-301100-
...SOUTHWEST COLORADO...

CITY           SKY/WX    TMP DP  RH WIND       PRES   REMARKS
DURANGO        PTCLDY    31  21  66 CALM      30.34S
CORTEZ         CLEAR     31  18  58 E7        30.32F WCI  24
PAGOSA SPRINGS PTCLDY    33  21  61 CALM      30.38S
TELLURIDE      CLEAR     36  11  35 E9        30.47F
WOLF CREEK PAS NOT AVBL
$$

COZ009-010-012-014-032>034-037-058>063-301100-
...CENTRAL COLORADO...

CITY           SKY/WX    TMP DP  RH WIND       PRES   REMARKS
ASPEN          CLEAR     29  19  66 S5        30.40S WCI  24
BUENA VISTA    CLEAR     26  15  63 SW3       30.38R
COPPER MTN     CLEAR     32  18  55 W17G29    30.51R WCI  21
BERTHOUD PASS  FAIR      25  21  86 NW35G47   30.47R WCI   7
COTTONWOOD PAS CLEAR     43  10  26 S3        30.43R
GUNNISON       CLEAR     25  14  63 NE3       30.44S
KREMMLING      CLEAR     28  21  74 CALM        N/A
LEADVILLE      CLEAR     32  13  45 NE10      30.43S WCI  24
MONARCH PASS   CLEAR     30  12  47 W22       30.60S WCI  17
SALIDA         CLEAR     35  14  43 CALM      30.44R
SUNLIGHT       CLEAR     34  14  44 CALM      30.51S
WILKERSON PASS NOT AVBL
$$

COZ069>075-301100-
...SAN LUIS VALLEY/SANGRE DE CRISTO MOUNTAINS...

CITY           SKY/WX    TMP DP  RH WIND       PRES   REMARKS
ALAMOSA        PTCLDY    23  13  65 CALM      30.37S
LA VETA PASS   CLEAR     37  12  35 S7        30.44S
SAGUACHE       PTCLDY    34  12  40 N10       30.39F WCI  26
$$

COZ035-036-038>040-301100-
...NORTHERN COLORADO FRONT RANGE...

CITY           SKY/WX    TMP DP  RH WIND       PRES   REMARKS
DENVER INTL AP PTCLDY    47  25  42 CALM      30.29R
DMNS CITY PARK   N/A     42  24  47 S5        30.30R
AURORA         PTCLDY    39  25  57 SE6       30.30S
FRONT RANGE AP PTCLDY    45  28  53 S6        30.30R
ERIE MUNI ARPT CLEAR     43  26  52 SW3       30.29R
BOULDER MUN AP CLEAR     45  25  45 CALM      30.28R
CENTENNIAL     PTCLDY    40  26  57 S5        30.30R
BROOMFIELD     PTCLDY    46  23  39 SE3       30.30R
FORT COLLINS   CLEAR     45  27  49 SW6       30.29R
LONGMONT       CLEAR     37  28  68 CALM      30.31R
$$

COZ041-046-047-076>085-087-088-301100-
...PIKES PEAK/PALMER DIVIDE AND SOUTHERN FOOTHILLS...

CITY           SKY/WX    TMP DP  RH WIND       PRES   REMARKS
COLO. SPRINGS  CLEAR     45  23  42 N13       30.30R
A. F. ACADEMY  CLEAR     37  18  46 N10       30.32R
ELLICOTT       CLEAR     45  22  40 N6        30.28R
FALCON         CLEAR     43  22  43 N12G17    30.32S
FORT CARSON    CLEAR     41  20  44 N10       30.29R
LIMON          CLEAR     37  23  56 N7        30.27R
MONUMENT HILL  CLEAR     32  21  64 CALM      30.33R
TRINIDAD       PTCLDY    37  17  44 W12       30.27R
$$

COZ042>045-048>051-090-091-301100-
...NORTHEAST COLORADO...

CITY           SKY/WX    TMP DP  RH WIND       PRES   REMARKS
GREELEY ARPT   CLEAR     46  25  42 N17       30.26R
AKRON          CLEAR     37  24  59 NW5       30.24R
BURLINGTON     CLEAR     40  24  53 NW12      30.21R
WRAY           CLEAR     39  26  59 NW9       30.21R
STERLING       CLEAR     41  30  65 NW6       30.24R
HOLYOKE        CLEAR     45  27  49 W9        30.21R
FORT MORGAN    CLEAR     45  23  41 N13       30.25R
$$

COZ086-089-092>099-301100-
...SOUTHEAST COLORADO...

CITY           SKY/WX    TMP DP  RH WIND       PRES   REMARKS
PUEBLO         CLEAR     37  21  52 W3        30.25R
LA JUNTA       CLEAR     40  24  53 W9        30.22R
LAMAR          CLEAR     36  26  67 SW8       30.18R
SPRINGFIELD      N/A     39  27  62 NW10      30.18R
$$



USA.gov is the U.S. government's official web portal to all federal, state and local government web resources and services.